Appleton, MN

3:01 PM CDT on August 23, 2017 (GMT -0500)
Appleton Municipal

Weather History for KAQP - January, 2014

Change the Weather History Date:

Friday, January 24, 2014

  Actual Average Record
Temperature  
Mean Temperature 27 °F -  
Max Temperature 37 °F 17 °F 37 °F (2014)
Min Temperature 17 °F 2 °F -20 °F (2009)
Degree Days  
Heating Degree Days 38    
Moisture  
Dew Point 22 °F    
Average Humidity 75    
Maximum Humidity 93    
Minimum Humidity 49    
Precipitation  
Precipitation 0.19 in - - ()
Sea Level Pressure  
Sea Level Pressure 29.70 in    
Wind  
Wind Speed 16 mph (West)    
Max Wind Speed 32 mph    
Max Gust Speed 43 mph    
Visibility 9 miles    
Events Rain , Snow    
Averages and records for this station are not official NWS values.
T = Trace of Precipitation, MM = Missing Value Source: NWS Daily Summary

Daily Weather History Graph

Daily Weather History Graph

Search for Another Location

Airport or City:

Trip Planner

Search our weather history database for the weather conditions in past years. The results will help you decide how hot, cold, wet, or windy it might be!

Date:

Astronomy

Jan. 24, 2014 Rise Set
Actual Time 7:52 AM CST 5:20 PM CST
Civil Twilight 7:20 AM CST 5:52 PM CST
Nautical Twilight 6:44 AM CST 6:28 PM CST
Astronomical Twilight 6:09 AM CST 7:03 PM CST
Moon 1:17 AM CST (1/24) 11:42 AM CST (1/24)
Length of Visible Light 10h 31m
Length of Day
9h 27m
Last Quarter, 44% of the Moon is Illuminated
Jan 24
Last Quarter
Jan 30
New
Feb 6
First Quarter
Feb 14
Full
Feb 22
Last Quarter

Hourly Weather History & Observations

Time (CST) Temp. Windchill Dew Point Humidity Pressure Visibility Wind Dir Wind Speed Gust Speed Precip Events Conditions
12:13 AM 17.6 °F 1.7 °F 1.4 °F 49% 29.99 in 10.0 mi SW 18.4 mph - N/A   Mostly Cloudy
12:33 AM 17.6 °F 4.3 °F 3.2 °F 53% 29.97 in 10.0 mi SW 12.7 mph - N/A   Mostly Cloudy
12:53 AM 19.4 °F 5.5 °F 6.8 °F 58% 29.95 in 10.0 mi SW 15.0 mph - N/A   Overcast
1:13 AM 19.4 °F 5.5 °F 8.6 °F 63% 29.94 in 10.0 mi SW 15.0 mph - N/A   Overcast
1:33 AM 21.2 °F 7.3 °F 8.6 °F 58% 29.90 in 10.0 mi SW 16.1 mph 20.7 mph N/A   Overcast
1:53 AM 21.2 °F 7.3 °F 8.6 °F 58% 29.89 in 10.0 mi SW 16.1 mph - N/A   Overcast
2:14 AM 21.2 °F 6.8 °F 10.4 °F 63% 29.87 in 10.0 mi SW 17.3 mph 21.9 mph N/A   Overcast
2:34 AM 21.2 °F 6.4 °F 10.4 °F 63% 29.85 in 10.0 mi SW 18.4 mph 21.9 mph N/A   Overcast
2:54 AM 23.0 °F 10.6 °F 10.4 °F 59% 29.85 in 10.0 mi SW 13.8 mph - N/A   Overcast
3:13 AM 23.0 °F 10.6 °F 12.2 °F 63% 29.84 in 10.0 mi WSW 13.8 mph - N/A   Overcast
3:33 AM 24.8 °F 14.6 °F 12.2 °F 59% 29.83 in 10.0 mi WSW 10.4 mph - N/A   Overcast
3:53 AM 24.8 °F 15.3 °F 14.0 °F 64% 29.82 in 10.0 mi SW 9.2 mph - N/A   Overcast
4:14 AM 24.8 °F 14.6 °F 15.8 °F 69% 29.81 in 10.0 mi WSW 10.4 mph - N/A   Overcast
4:33 AM 26.6 °F 15.7 °F 15.8 °F 64% 29.80 in 10.0 mi WSW 12.7 mph - N/A   Overcast
4:54 AM 26.6 °F 15.7 °F 17.6 °F 69% 29.79 in 10.0 mi WSW 12.7 mph - N/A   Overcast
5:14 AM 26.6 °F 14.3 °F 17.6 °F 69% 29.78 in 10.0 mi West 16.1 mph - N/A   Overcast
5:33 AM 26.6 °F 14.3 °F 17.6 °F 69% 29.78 in 10.0 mi West 16.1 mph - N/A   Overcast
5:53 AM 26.6 °F 15.2 °F 17.6 °F 69% 29.78 in 10.0 mi West 13.8 mph - N/A   Overcast
6:14 AM 26.6 °F 15.7 °F 17.6 °F 69% 29.77 in 10.0 mi West 12.7 mph - N/A   Overcast
6:34 AM 26.6 °F 15.7 °F 19.4 °F 74% 29.77 in 10.0 mi West 12.7 mph - N/A   Overcast
6:54 AM 26.6 °F 17.5 °F 19.4 °F 74% 29.77 in 10.0 mi West 9.2 mph - N/A   Overcast
7:14 AM 26.6 °F 15.2 °F 19.4 °F 74% 29.76 in 10.0 mi West 13.8 mph - N/A   Overcast
7:34 AM 28.4 °F 17.5 °F 21.2 °F 74% 29.76 in 10.0 mi West 13.8 mph - N/A   Overcast
7:54 AM 26.6 °F 15.2 °F 21.2 °F 80% 29.75 in 10.0 mi West 13.8 mph - N/A   Overcast
8:14 AM 26.6 °F 15.7 °F 19.4 °F 74% 29.75 in 10.0 mi West 12.7 mph - N/A   Mostly Cloudy
8:34 AM 26.6 °F 15.7 °F 19.4 °F 74% 29.74 in 10.0 mi West 12.7 mph - N/A   Clear
8:54 AM 26.6 °F 15.7 °F 19.4 °F 74% 29.75 in 10.0 mi West 12.7 mph - N/A   Clear
9:14 AM 26.6 °F 16.2 °F 19.4 °F 74% 29.73 in 10.0 mi West 11.5 mph - N/A   Clear
9:34 AM 26.6 °F 16.2 °F 21.2 °F 80% 29.73 in 10.0 mi West 11.5 mph - N/A   Clear
9:53 AM 26.6 °F 16.8 °F 21.2 °F 80% 29.72 in 10.0 mi West 10.4 mph - N/A   Clear
10:14 AM 28.4 °F 18.5 °F 23.0 °F 80% 29.71 in 10.0 mi West 11.5 mph - N/A   Clear
10:34 AM 30.2 °F 19.8 °F 24.8 °F 80% 29.71 in 10.0 mi West 13.8 mph - N/A   Clear
10:54 AM 30.2 °F 20.2 °F 24.8 °F 80% 29.70 in 10.0 mi West 12.7 mph - N/A   Clear
11:14 AM 32.0 °F 21.2 °F 24.8 °F 75% 29.69 in 10.0 mi West 16.1 mph - N/A   Clear
11:33 AM 33.8 °F 23.9 °F 26.6 °F 75% 29.69 in 10.0 mi West 15.0 mph - N/A   Clear
11:53 AM 33.8 °F 23.9 °F 26.6 °F 75% 29.67 in 10.0 mi West 15.0 mph - N/A   Scattered Clouds
12:13 PM 35.6 °F 26.2 °F 28.4 °F 75% 29.66 in 10.0 mi West 15.0 mph - N/A   Scattered Clouds
12:34 PM 35.6 °F 26.2 °F 28.4 °F 75% 29.64 in 10.0 mi West 15.0 mph 21.9 mph N/A   Clear
12:54 PM 35.6 °F 26.2 °F 28.4 °F 75% 29.62 in 10.0 mi West 15.0 mph - N/A   Clear
1:14 PM 35.6 °F 26.6 °F 28.4 °F 75% 29.60 in 10.0 mi West 13.8 mph - N/A   Clear
1:34 PM 37.4 °F 27.2 °F 28.4 °F 70% 29.60 in 10.0 mi West 19.6 mph 24.2 mph N/A   Mostly Cloudy
1:53 PM 37.4 °F 26.6 °F 30.2 °F 75% 29.58 in 10.0 mi West 21.9 mph 28.8 mph N/A   Mostly Cloudy
2:14 PM 37.4 °F 27.8 °F 30.2 °F 75% 29.55 in 10.0 mi West 17.3 mph 27.6 mph N/A   Scattered Clouds
2:34 PM 37.4 °F 28.5 °F 30.2 °F 75% 29.54 in 10.0 mi West 15.0 mph - N/A   Mostly Cloudy
2:54 PM 37.4 °F 29.3 °F 30.2 °F 75% 29.55 in 10.0 mi WNW 12.7 mph - N/A   Mostly Cloudy
3:14 PM 37.4 °F 28.5 °F 32.0 °F 81% 29.55 in 10.0 mi WNW 15.0 mph - 0.01 in   Overcast
3:34 PM 35.6 °F 25.2 °F 32.0 °F 87% 29.55 in 7.0 mi West 18.4 mph 25.3 mph 0.02 in Rain Light Rain
3:54 PM 35.6 °F 25.2 °F 32.0 °F 87% 29.54 in 5.0 mi West 18.4 mph - 0.04 in Rain Rain
4:14 PM 35.6 °F 25.9 °F 33.8 °F 93% 29.54 in 10.0 mi West 16.1 mph - 0.02 in Rain Light Rain
4:34 PM 35.6 °F 25.5 °F 33.8 °F 93% 29.53 in 7.0 mi West 17.3 mph - 0.04 in   Light Drizzle
4:54 PM 35.6 °F 25.9 °F 33.8 °F 93% 29.54 in 7.0 mi WNW 16.1 mph 19.6 mph 0.06 in   Overcast
5:14 PM 35.6 °F 25.5 °F 33.8 °F 93% 29.54 in 10.0 mi WNW 17.3 mph 24.2 mph 0.02 in   Overcast
5:34 PM 35.6 °F 24.8 °F 33.8 °F 93% 29.55 in 10.0 mi NW 19.6 mph 26.5 mph 0.04 in   Overcast
5:53 PM 35.6 °F 23.7 °F 33.8 °F 93% 29.56 in 10.0 mi NW 24.2 mph 29.9 mph 0.05 in   Overcast
6:13 PM 35.6 °F 24.5 °F 33.8 °F 93% 29.57 in 10.0 mi NNW 20.7 mph 27.6 mph 0.01 in   Overcast
6:34 PM 35.6 °F 25.5 °F 32.0 °F 87% 29.58 in 10.0 mi NNW 17.3 mph 27.6 mph 0.02 in   Overcast
6:53 PM 35.6 °F 24.5 °F 32.0 °F 87% 29.59 in 10.0 mi NNW 20.7 mph 26.5 mph 0.03 in   Overcast
7:13 PM 35.6 °F 24.8 °F 32.0 °F 87% 29.60 in 10.0 mi NNW 19.6 mph 26.5 mph 0.01 in   Overcast
7:34 PM 35.6 °F 25.5 °F 30.2 °F 81% 29.61 in 10.0 mi NNW 17.3 mph - 0.01 in   Overcast
7:53 PM 35.6 °F 26.2 °F 30.2 °F 81% 29.61 in 10.0 mi NNW 15.0 mph - 0.01 in   Overcast
8:13 PM 35.6 °F 27.5 °F 30.2 °F 81% 29.61 in 10.0 mi NW 11.5 mph - N/A   Overcast
8:33 PM 35.6 °F 25.9 °F 30.2 °F 81% 29.61 in 10.0 mi NW 16.1 mph - N/A   Overcast
8:53 PM 35.6 °F 25.9 °F 30.2 °F 81% 29.62 in 10.0 mi WNW 16.1 mph 19.6 mph N/A   Overcast
9:13 PM 35.6 °F 23.4 °F 30.2 °F 81% 29.63 in 7.0 mi NNW 25.3 mph 33.4 mph N/A   Overcast
9:33 PM 30.2 °F 14.7 °F 24.8 °F 80% 29.65 in 10.0 mi North 32.2 mph 42.6 mph N/A   Overcast
9:53 PM 28.4 °F 12.5 °F 23.0 °F 80% 29.67 in 4.0 mi North 31.1 mph 41.4 mph N/A Snow Light Snow
10:13 PM 26.6 °F 10.0 °F 19.4 °F 74% 29.68 in 3.0 mi NNW 31.1 mph 39.1 mph N/A Snow Light Snow
10:33 PM 26.6 °F 10.6 °F 17.6 °F 69% 29.69 in 3.0 mi NNW 28.8 mph 40.3 mph N/A Snow Light Snow
10:54 PM 24.8 °F 8.7 °F 17.6 °F 74% 29.72 in 2.0 mi NNW 26.5 mph 39.1 mph N/A Snow Light Snow
11:13 PM 23.0 °F 4.9 °F 15.8 °F 74% 29.73 in 10.0 mi NNW 32.2 mph 36.8 mph N/A   Overcast
11:33 PM 21.2 °F 3.0 °F 12.2 °F 68% 29.75 in 10.0 mi NNW 29.9 mph 39.1 mph N/A   Overcast
11:53 PM 19.4 °F 1.8 °F 10.4 °F 68% 29.76 in 10.0 mi NNW 25.3 mph 38.0 mph N/A   Overcast